CAPE
0 0 0 0 0 0 0 4 5 7 2 0 0 0 0 0 0 0 0 0 0 0 0 0 0 0 0 0 0 1 0 0 2 3 5 6 6 6
0 0 0 0 0 0 1 2 0 2 16 4 0 3 0 0 0 0 0 0 0 3 0 0 0 0 0 0 0 0 1 2 4 5 5 4 4 3
0 0 0 0 1 2 5 0 0 1 1 0 4 0 0 0 0 1 0 0 0 0 0 0 0 0 0 0 0 0 3 5 6 7 8 6 7 5
0 0 0 1 3 5 0 0 6 0 7 1 0 0 0 0 0 0 5 8 0 0 0 0 0 0 0 0 0 1 1 1 2 2 4 6 3 7
0 0 0 6 5 0 0 0 1 5 0 4 4 3 4 0 0 0 0 0 0 3 0 0 0 0 0 0 0 0 1 4 3 1 1 0 2 3
0 0 4 4 0 0 0 2 6 7 6 0 3 4 7 3 9 0 0 0 0 2 1 7 7 0 0 0 0 0 6 5 5 3 3 0 0 0
0 0 2 0 2 0 0 0 9 5 8 1 3 1 1 1 5 20 13 8 1 0 0 0 0 0 3 8 0 0 1 5 5 3 4 1 0 0
0 0 0 0 0 0 1 2 1 5 9 11 13 13 10 11 10 10 13 8 4 1 5 1 0 2 0 2 0 0 2 3 4 4 3 4 1 0
0 0 0 1 5 0 1 8 12 12 10 5 12 13 17 15 17 13 9 9 7 1 1 0 0 0 1 2 0 2 3 4 4 2 2 3 3 2
0 1 2 2 3 7 10 8 10 9 3 3 7 11 17 13 7 4 4 3 2 1 0 0 0 0 0 0 1 4 5 6 6 4 4 4 5 4
0 1 4 4 2 6 8 12 5 0 0 4 6 2 0 0 0 0 0 1 2 1 0 0 0 0 0 0 0 5 6 4 6 5 7 8 8 7
0 0 1 5 1 6 2 1 2 0 0 0 1 0 0 0 0 2 9 7 5 7 0 0 0 0 14 0 0 0 0 2 7 7 8 8 8 0
1 2 2 6 5 0 0 0 0 0 0 0 0 0 0 0 0 0 0 3 1 2 0 0 0 0 0 3 0 0 0 0 0 0 7 9 9 6
5 4 3 0 0 0 0 0 0 0 0 0 1 3 0 0 0 0 0 0 0 0 0 0 0 0 0 3 4 0 0 0 0 0 0 3 7 5
2 0 0 0 0 0 0 0 0 0 0 0 1 0 0 0 0 0 0 0 0 0 0 0 0 0 0 0 2 0 0 0 0 0 0 0 0 0
0 0 0 0 0 1 0 0 0 0 0 0 0 0 0 0 0 0 3 1 3 0 0 0 0 1 0 1 0 0 0 0 1 1 1 0 0 0
0 0 0 3 3 1 0 0 0 0 3 6 8 0 0 0 0 1 3 0 2 0 0 0 0 0 0 1 0 0 0 1 2 2 0 0 0 0
0 3 4 2 2 2 3 3 2 3 4 9 6 0 0 2 2 1 0 2 1 0 0 0 0 0 0 0 5 1 1 2 1 1 0 0 0 0
4 5 2 2 2 1 6 7 8 4 6 4 6 4 2 3 2 2 1 1 0 0 0 0 1 2 0 0 0 0 0 2 1 0 0 0 0 0
3 2 3 3 4 7 5 6 6 5 6 7 4 2 1 2 2 2 2 0 0 0 2 0 0 1 0 0 0 0 0 0 0 0 0 0 0 1
5 2 3 4 6 7 5 6 5 5 4 4 3 3 1 0 2 2 0 0 0 0 0 0 0 0 0 0 0 0 0 1 0 0 0 0 0 0
4 4 4 4 5 6 4 6 4 4 4 3 3 4 2 1 0 0 0 1 2 0 1 1 0 2 0 0 0 0 0 0 1 1 0 0 0 0
3 3 5 5 3 3 7 6 5 6 4 3 3 2 1 0 0 0 0 1 3 0 0 1 1 0 1 1 0 0 0 0 0 0 0 0 0 0
CIN
-0 -0 -0 -0 -0 -0 -2 -11 -5 -1 -0 -0 -0 -0 -0 -0 -0 -0 -0 -0 -0 -0 -0 -0 -0 -0 -0 -0 -0 -0 -0 -0 -0 -0 -0 -0 -0 -0
-0 -0 -0 -0 -1 -0 -2 -2 -0 -1 -0 -1 -0 -4 -2 -0 -0 -0 -0 -0 -0 -9 -0 -0 -0 -0 -0 -0 -0 -0 -0 -0 -0 -0 -0 -0 -0 -0
-0 -0 -0 -1 -3 -4 -5 -0 -0 -0 -1 -0 -1 -0 -0 -0 -0 -5 -0 -0 -0 -0 -0 -0 -0 -0 -0 -0 -0 -0 -0 -0 -0 -0 -0 -0 -0 -0
-0 -0 -0 -0 -4 -3 -0 -0 -2 -0 -0 -0 -0 -0 -0 -0 -0 -0 -1 -1 -0 -0 -0 -0 -0 -0 -0 -0 -0 -0 -0 -0 -0 -0 -0 -0 -0 -0
-0 -0 -0 -2 -6 -0 -0 -0 -2 -0 -0 -1 -0 -1 -0 -0 -0 -0 -0 -0 -0 -0 -0 -0 -0 -3 -0 -0 -0 -0 -0 -0 -0 -0 -0 -0 -0 -0
-0 -0 -3 -11 -0 -0 -0 -2 -0 -0 -0 -0 -0 -0 -1 -1 -1 -0 -0 -2 -0 -0 -0 -1 -7 -0 -0 -0 -0 -0 -0 -0 -0 -0 -0 -0 -0 -0
-0 -0 -1 -0 -9 -0 -0 -0 -1 -0 -0 -0 -0 -0 -0 -1 -1 -1 -1 -3 -1 -1 -0 -0 -0 -0 -1 -0 -0 -0 -0 -0 -0 -0 -0 -0 -0 -0
-0 -0 -0 -0 -0 -1 -3 -13 -11 -4 -0 -0 -0 -0 -0 -0 -2 -2 -1 -1 -1 -3 -8 -5 -0 -5 -2 -2 -0 -0 -0 -0 -0 -0 -0 -0 -0 -0
-0 -0 -0 -0 -3 -0 -0 -3 -2 -4 -6 -6 -0 -0 -0 -0 -0 -0 -1 -1 -1 -7 -7 -1 -0 -0 -2 -0 -0 -0 -0 -0 -0 -0 -0 -0 -0 -0
-0 -1 -0 -0 -1 -4 -0 -0 -0 -1 -2 -2 -1 -0 -0 -1 -1 -0 -0 -0 -1 -1 -0 -0 -0 -0 -0 -1 -0 -0 -0 -0 -0 -0 -0 -0 -0 -0
-0 -0 -0 -1 -2 -5 -1 -0 -1 -0 -0 -6 -6 -6 -1 -0 -0 -0 -0 -0 -0 -1 -0 -0 -1 -0 -0 -0 -0 -0 -0 -0 -0 -0 -0 -0 -0 -0
-1 -0 -1 -1 -5 -6 -1 -0 -0 -0 -0 -0 -0 -0 -0 -0 -0 -1 -0 -0 -0 -0 -0 -0 -0 -0 -0 -0 -0 -0 -0 -0 -0 -0 -0 -0 -0 -0
-1 -1 -0 -2 -3 -0 -0 -0 -0 -0 -0 -0 -0 -0 -0 -0 -0 -0 -0 -0 -0 -0 -0 -0 -0 -0 -0 -0 -0 -0 -0 -0 -0 -0 -0 -0 -0 -0
-0 -1 -0 -0 -0 -0 -0 -0 -0 -0 -0 -0 -0 -0 -0 -0 -0 -0 -0 -0 -0 -0 -0 -0 -0 -0 -0 -0 -0 -0 -0 -0 -0 -0 -0 -0 -0 -0
-1 -5 -0 -0 -0 -0 -0 -0 -0 -0 -0 -0 -1 -0 -0 -0 -0 -0 -0 -0 -0 -0 -0 -0 -0 -0 -0 -0 -0 -0 -0 -0 -0 -0 -0 -0 -0 -0
-0 -0 -0 -0 -1 -14 -0 -0 -0 -0 -0 -0 -0 -0 -0 -0 -0 -1 -0 -1 -0 -0 -3 -0 -0 -0 -0 -0 -0 -0 -0 -0 -0 -0 -0 -0 -0 -0
-0 -0 -0 -1 -3 -8 -0 -0 -0 -0 -1 -0 -0 -1 -0 -1 -0 -1 -0 -0 -0 -0 -0 -0 -0 -0 -0 -0 -0 -0 -0 -0 -0 -0 -0 -0 -0 -0
-0 -0 -0 -1 -1 -1 -1 -1 -2 -1 -0 -0 -0 -0 -0 -0 -0 -0 -0 -0 -0 -0 -0 -0 -0 -0 -0 -0 -0 -0 -0 -0 -0 -0 -0 -0 -0 -0
-1 -1 -1 -1 -1 -1 -0 -0 -0 -1 -1 -0 -0 -0 -0 -0 -0 -0 -0 -0 -0 -0 -0 -0 -0 -0 -0 -0 -0 -0 -0 -0 -0 -0 -0 -0 -0 -0
-2 -1 -1 -0 -0 -0 -0 -0 -0 -0 -0 -0 -0 -0 -0 -0 -0 -0 -0 -0 -0 -0 -0 -0 -0 -0 -0 -0 -0 -0 -0 -0 -0 -0 -0 -0 -0 -0
-1 -1 -0 -0 -0 -0 -0 -0 -0 -0 -0 -0 -0 -0 -0 -0 -0 -0 -0 -0 -0 -0 -0 -0 -0 -0 -0 -0 -0 -0 -0 -0 -0 -0 -0 -0 -0 -0
-1 -0 -1 -0 -0 -0 -0 -0 -0 -0 -0 -0 -0 -0 -0 -0 -0 -0 -0 -0 -0 -0 -0 -0 -0 -0 -0 -0 -0 -0 -0 -0 -0 -0 -0 -0 -0 -0
-1 -0 -0 -0 -0 -0 -0 -0 -0 -0 -0 -0 -0 -0 -0 -0 -0 -0 -0 -0 -0 -0 -0 -0 -0 -0 -0 -0 -0 -0 -0 -0 -0 -0 -0 -0 -0 -0
Wind_Speed
7 8 7 6 7 7 7 2 5 11 14 10 11 14 11 9 10 9 13 16 10 5 8 15 18 13 13 17 18 21 23 23 25 25 26 25 27 28
7 8 7 7 7 6 7 7 8 10 14 11 11 12 13 13 13 10 11 16 15 10 11 19 21 18 12 15 18 20 21 23 26 28 28 28 29 29
9 9 10 9 7 7 6 7 9 10 12 11 11 13 15 16 14 10 10 10 9 15 17 22 20 22 12 12 15 19 21 23 25 27 29 31 31 30
11 11 11 9 9 6 7 10 8 11 11 17 13 12 15 16 16 16 11 10 11 16 24 26 26 19 13 10 10 17 20 23 26 28 31 31 32 31
11 11 12 10 8 8 8 8 9 8 11 12 13 12 12 12 14 14 12 13 11 21 24 27 22 15 18 12 11 17 21 21 20 23 27 29 30 29
11 12 10 9 10 9 9 10 10 10 12 13 12 12 11 12 11 12 13 11 14 15 18 15 20 26 27 15 11 13 19 21 20 19 21 24 22 22
11 12 9 12 6 13 9 10 11 11 11 13 14 14 13 12 13 11 12 12 13 13 12 10 13 13 13 17 8 11 15 18 17 17 18 20 22 20
12 12 12 14 14 17 18 14 11 12 13 12 12 14 15 13 11 12 11 10 14 4 12 13 11 11 12 10 9 11 13 15 15 14 15 17 17 20
13 12 12 11 15 16 18 15 14 15 16 14 16 14 16 14 15 15 14 14 13 12 12 14 10 11 10 7 8 11 12 13 12 11 13 16 17 19
12 13 15 17 16 15 14 15 15 15 14 12 14 15 14 15 15 15 16 15 12 10 9 11 11 10 8 9 7 11 12 12 12 10 10 13 16 18
13 14 15 16 18 19 15 17 17 14 13 18 19 22 23 25 21 12 10 10 10 8 4 5 3 8 9 2 4 10 10 10 8 6 7 10 12 12
14 14 16 15 22 22 18 16 16 14 13 14 15 16 16 15 19 12 10 10 10 9 2 3 6 3 4 1 1 2 3 6 8 5 6 8 9 4
13 12 12 20 24 27 27 15 16 17 17 13 12 10 10 10 9 8 9 9 9 9 9 5 3 6 4 5 1 2 3 2 3 3 7 8 11 8
14 13 14 25 28 27 21 22 23 16 9 9 9 9 9 8 9 9 11 10 9 12 12 11 4 5 5 6 5 0 2 3 2 2 3 6 12 13
12 18 26 26 25 18 17 19 14 8 8 9 10 10 8 8 10 9 8 8 9 9 7 5 8 6 4 5 3 1 1 2 3 3 4 5 5 4
14 13 15 17 14 11 11 10 8 8 9 9 9 9 8 7 8 7 8 7 7 7 5 2 4 6 5 5 3 2 2 2 2 4 5 6 7 7
15 10 9 10 11 11 10 10 9 9 10 8 8 8 9 8 8 7 6 7 7 8 7 1 3 4 5 3 3 3 4 5 4 5 7 7 8 8
10 10 11 10 11 12 12 11 10 11 9 9 9 8 8 8 8 7 7 5 8 8 5 1 2 1 2 8 10 5 6 6 6 7 6 9 9 8
8 9 10 11 11 11 11 11 12 11 12 9 9 8 8 7 8 7 6 7 7 6 1 0 2 1 5 7 4 13 7 6 7 8 7 7 7 9
8 10 10 11 11 11 11 11 11 11 10 10 9 8 7 6 7 7 7 8 6 3 2 2 2 4 4 3 4 8 14 7 8 8 8 7 8 11
9 10 10 10 10 11 11 11 11 11 11 10 9 7 6 6 7 7 7 8 4 4 5 5 6 10 7 6 9 10 10 20 9 4 2 6 6 6
9 10 10 9 10 11 11 11 11 11 10 9 8 7 6 6 7 7 5 3 5 5 6 5 4 7 8 10 10 10 9 8 17 25 20 8 2 4
10 10 10 9 10 10 10 11 11 11 10 9 7 7 7 7 6 4 3 4 4 5 5 7 7 7 7 9 11 9 13 11 9 12 12 24 24 20
Wind_Direction
344 348 347 341 347 335 337 324 309 315 317 327 325 317 311 314 316 328 328 335 342 16 6 354 347 346 347 340 337 332 331 321 309 299 293 287 284 279
351 340 345 334 330 338 323 347 339 321 308 324 322 315 333 324 320 337 328 332 314 337 347 347 338 322 330 338 339 333 327 319 314 307 299 293 282 275
341 344 337 332 335 328 351 345 330 313 315 315 320 328 321 320 319 322 319 312 326 340 336 333 323 319 313 329 333 330 327 323 318 315 310 299 285 275
338 336 332 328 328 351 346 329 322 327 322 323 325 326 320 323 326 324 329 337 341 332 338 324 316 309 298 311 323 326 324 326 324 321 313 305 291 272
331 327 319 319 354 346 347 344 324 338 325 312 314 313 316 321 323 319 335 329 329 332 322 314 313 322 322 305 336 332 328 326 319 323 319 304 287 267
326 314 317 1 356 8 343 332 338 322 318 313 311 313 311 316 319 324 319 322 325 322 313 316 339 334 323 316 330 336 328 324 325 332 339 332 307 263
317 324 336 351 1 357 340 329 320 317 313 313 311 312 312 315 315 313 311 313 316 309 318 337 320 313 313 314 313 332 326 324 329 338 342 6 7 40
327 339 338 330 346 326 322 298 285 299 299 303 302 301 300 303 304 310 306 312 312 286 315 309 307 306 302 296 312 329 329 330 338 353 3 6 18 27
336 337 328 324 325 320 317 313 305 292 281 291 296 294 299 304 306 307 305 298 295 299 303 300 306 300 302 305 339 342 341 342 345 7 22 26 31 40
327 324 321 321 320 320 326 317 309 304 298 296 294 296 292 293 293 293 293 288 283 286 279 286 309 301 311 299 345 352 347 344 355 18 36 49 51 51
326 323 315 314 316 325 314 311 308 301 294 290 290 293 293 290 286 288 282 287 291 294 253 279 284 309 311 338 345 342 347 349 351 25 65 66 65 56
321 317 313 310 320 316 312 310 303 298 302 300 298 294 288 284 284 276 288 293 294 296 259 255 306 317 306 279 302 338 334 340 4 28 59 64 50 59
320 320 317 317 315 311 308 302 292 294 296 293 290 290 293 290 285 277 271 278 287 279 283 283 282 289 262 289 327 356 346 343 4 1 42 64 63 55
318 313 312 311 309 307 305 294 290 294 295 294 297 296 292 292 290 287 278 272 262 266 280 275 265 262 268 281 291 126 8 15 10 18 11 46 67 71
309 304 307 308 305 301 293 297 301 297 299 299 301 298 293 289 293 289 286 276 274 272 270 254 266 273 250 260 282 169 119 32 16 25 35 37 29 13
311 307 300 295 296 300 308 307 304 301 299 293 291 294 295 298 299 297 299 301 299 303 293 32 320 275 264 247 210 123 118 110 43 47 54 52 40 34
315 307 311 319 320 319 317 314 313 311 309 301 296 299 302 302 298 301 298 299 301 308 303 106 1 2 40 65 82 96 106 96 75 75 70 61 45 30
318 319 325 323 320 320 318 318 316 315 315 308 302 298 299 304 306 308 298 303 303 300 299 128 197 239 343 52 50 84 82 86 82 75 72 77 59 39
329 325 323 321 317 317 318 321 321 318 317 312 308 307 304 306 310 308 305 306 300 306 360 144 265 53 90 82 67 47 96 84 76 65 63 66 74 49
326 322 319 317 316 319 320 319 318 320 319 318 311 308 307 307 310 306 309 303 309 317 21 347 28 88 94 64 85 61 56 91 93 94 92 89 89 73
321 319 316 317 318 317 318 318 319 318 317 316 317 315 313 309 312 308 306 313 329 63 56 43 67 85 90 85 75 64 56 63 69 102 115 83 74 60
314 314 317 317 316 316 317 320 321 320 321 320 317 317 319 312 309 314 322 30 60 71 83 72 52 73 82 89 93 87 75 67 56 58 58 74 189 84
315 313 313 318 315 314 318 322 322 322 324 323 319 321 317 320 322 332 21 54 66 91 102 85 86 80 79 81 86 85 80 69 69 67 59 62 75 83